JST672 YSSY-YPDN

Flight info

Callsign JST672
Flight time 4h 24m
Altitude 36000
Route TESAT H530 IVRAD Q57 NITUN/N0447F380 Q57 MIGAX A464 TN Q23 DN
Aircraft A320/M-SDE3FGHIRWY/LB1

Departure

Time 2026-04-22 00:07
Airport Sydney Kingsford Smith International Airport (YSSY)

Arrival

Time 2026-04-22 04:32
Airport Darwin International Airport / RAAF Darwin (YPDN)
Time Latitude Longitude Altitude Speed Heading
2026-04-21 23:30 -33.93563 151.17760 30 ft 0 kts 281°
2026-04-21 23:50 -33.93565 151.17774 30 ft 4 kts 283°
2026-04-21 23:50 -33.93572 151.17805 30 ft 4 kts 277°
2026-04-21 23:50 -33.93572 151.17828 30 ft 4 kts 201°
2026-04-21 23:51 -33.93578 151.17827 30 ft 4 kts 190°
2026-04-21 23:51 -33.93604 151.17821 30 ft 4 kts 191°
2026-04-21 23:51 -33.93611 151.17820 30 ft 0 kts 191°
2026-04-22 00:01 -33.93619 151.17818 30 ft 2 kts 191°
2026-04-22 00:01 -33.93642 151.17811 30 ft 4 kts 208°
2026-04-22 00:01 -33.93657 151.17772 30 ft 6 kts 268°
2026-04-22 00:02 -33.93650 151.17713 30 ft 8 kts 278°
2026-04-22 00:02 -33.93643 151.17640 30 ft 10 kts 271°
2026-04-22 00:02 -33.93633 151.17550 29 ft 12 kts 301°
2026-04-22 00:02 -33.93553 151.17509 29 ft 13 kts 345°
2026-04-22 00:03 -33.93457 151.17500 30 ft 14 kts
2026-04-22 00:03 -33.93354 151.17501 30 ft 16 kts 351°
2026-04-22 00:03 -33.93245 151.17469 30 ft 17 kts 344°
2026-04-22 00:03 -33.93126 151.17436 30 ft 18 kts 347°
2026-04-22 00:04 -33.93042 151.17414 30 ft 19 kts 348°
2026-04-22 00:04 -33.92938 151.17387 30 ft 11 kts 347°
2026-04-22 00:04 -33.92889 151.17323 30 ft 12 kts 277°
2026-04-22 00:04 -33.92891 151.17293 31 ft 0 kts 257°
2026-04-22 00:05 -33.92892 151.17289 31 ft 2 kts 255°
2026-04-22 00:05 -33.92911 151.17248 31 ft 9 kts 237°
2026-04-22 00:06 -33.92961 151.17186 30 ft 12 kts 209°
2026-04-22 00:06 -33.93047 151.17188 30 ft 14 kts 168°
2026-04-22 00:06 -33.93285 151.17251 30 ft 67 kts 167°
2026-04-22 00:06 -33.93937 151.17421 27 ft 122 kts 168°
2026-04-22 00:07 -33.94914 151.17681 78 ft 160 kts 167°
2026-04-22 00:07 -33.96007 151.17979 565 ft 169 kts 168°
2026-04-22 00:07 -33.97225 151.18331 984 ft 189 kts 166°
2026-04-22 00:07 -33.99038 151.18720 1481 ft 212 kts 174°
2026-04-22 00:08 -34.00064 151.18845 1789 ft 226 kts 173°
2026-04-22 00:08 -34.01693 151.19077 2299 ft 243 kts 172°
2026-04-22 00:08 -34.03413 151.19290 3010 ft 253 kts 179°
2026-04-22 00:08 -34.05153 151.19281 3957 ft 250 kts 179°
2026-04-22 00:09 -34.06870 151.18961 4829 ft 256 kts 204°
2026-04-22 00:09 -34.08260 151.17596 5633 ft 265 kts 231°
2026-04-22 00:09 -34.09012 151.15539 6409 ft 276 kts 259°
2026-04-22 00:09 -34.08897 151.13211 7169 ft 285 kts 287°
2026-04-22 00:10 -34.07853 151.11167 7833 ft 293 kts 318°
2026-04-22 00:10 -34.06145 151.09796 8537 ft 298 kts 331°
2026-04-22 00:10 -34.04338 151.08547 9274 ft 302 kts 331°
2026-04-22 00:10 -34.02500 151.07283 10002 ft 307 kts 332°
2026-04-22 00:11 -34.00607 151.05983 10468 ft 321 kts 331°
2026-04-22 00:11 -33.98621 151.04613 10718 ft 340 kts 331°
2026-04-22 00:11 -33.96548 151.03178 11097 ft 352 kts 331°
2026-04-22 00:11 -33.94411 151.01690 11688 ft 357 kts 330°
2026-04-22 00:12 -33.92251 151.00188 12311 ft 361 kts 330°
2026-04-22 00:12 -33.90066 150.98671 12948 ft 365 kts 330°
2026-04-22 00:12 -33.87859 150.97139 13597 ft 368 kts 330°
2026-04-22 00:12 -33.85629 150.95589 14221 ft 372 kts 330°
2026-04-22 00:13 -33.83376 150.94022 14765 ft 376 kts 330°
2026-04-22 00:13 -33.81099 150.92441 15279 ft 381 kts 330°
2026-04-22 00:13 -33.78794 150.90841 15798 ft 385 kts 330°
2026-04-22 00:13 -33.76461 150.89224 16319 ft 389 kts 329°
2026-04-22 00:14 -33.74106 150.87594 16844 ft 392 kts 329°
2026-04-22 00:14 -33.71725 150.85950 17364 ft 397 kts 329°
2026-04-22 00:14 -33.69352 150.84311 17894 ft 401 kts 329°
2026-04-22 00:14 -33.66923 150.82632 18426 ft 405 kts 329°
2026-04-22 00:15 -33.64469 150.80935 18916 ft 409 kts 329°
2026-04-22 00:15 -33.61997 150.79227 19401 ft 412 kts 329°
2026-04-22 00:15 -33.59590 150.77349 19909 ft 413 kts 320°
2026-04-22 00:15 -33.57449 150.75052 20404 ft 414 kts 313°
2026-04-22 00:16 -33.55382 150.72647 20980 ft 415 kts 313°
2026-04-22 00:16 -33.53303 150.70233 21493 ft 417 kts 313°
2026-04-22 00:16 -33.51241 150.67840 22011 ft 419 kts 312°
2026-04-22 00:16 -33.49142 150.65402 22512 ft 421 kts 312°
2026-04-22 00:17 -33.47031 150.62952 23026 ft 424 kts 312°
2026-04-22 00:17 -33.44904 150.60494 23516 ft 426 kts 312°
2026-04-22 00:17 -33.42764 150.58025 23981 ft 429 kts 312°
2026-04-22 00:17 -33.40609 150.55545 24360 ft 431 kts 312°
2026-04-22 00:18 -33.38445 150.53051 24756 ft 433 kts 311°
2026-04-22 00:18 -33.36275 150.50546 25161 ft 434 kts 311°
2026-04-22 00:18 -33.34096 150.48037 25560 ft 436 kts 311°
2026-04-22 00:18 -33.31937 150.45556 25927 ft 437 kts 312°
2026-04-22 00:19 -33.29740 150.43032 26331 ft 438 kts 312°
2026-04-22 00:19 -33.27537 150.40505 26709 ft 440 kts 312°
2026-04-22 00:19 -33.25328 150.37967 27065 ft 441 kts 312°
2026-04-22 00:19 -33.23116 150.35421 27395 ft 443 kts 311°
2026-04-22 00:20 -33.20891 150.32866 27749 ft 445 kts 311°
2026-04-22 00:20 -33.18656 150.30304 28094 ft 446 kts 311°
2026-04-22 00:20 -33.16410 150.27738 28446 ft 448 kts 311°
2026-04-22 00:20 -33.14155 150.25164 28787 ft 450 kts 311°
2026-04-22 00:21 -33.11921 150.22612 29100 ft 452 kts 311°
2026-04-22 00:21 -33.09648 150.20010 29440 ft 453 kts 311°
2026-04-22 00:21 -33.07366 150.17402 29768 ft 455 kts 311°
2026-04-22 00:21 -33.05080 150.14790 30107 ft 456 kts 311°
2026-04-22 00:22 -33.02792 150.12182 30570 ft 454 kts 311°
2026-04-22 00:22 -33.00514 150.09586 30982 ft 452 kts 311°
2026-04-22 00:22 -32.98244 150.07005 31373 ft 451 kts 311°
2026-04-22 00:22 -32.95975 150.04429 31765 ft 450 kts 310°
2026-04-22 00:23 -32.93715 150.01860 32164 ft 448 kts 310°
2026-04-22 00:23 -32.91497 149.99337 32565 ft 447 kts 310°
2026-04-22 00:23 -32.89250 149.96782 32962 ft 446 kts 310°
2026-04-22 00:23 -32.87007 149.94237 33363 ft 444 kts 310°
2026-04-22 00:24 -32.84775 149.91707 33774 ft 443 kts 310°
2026-04-22 00:24 -32.82548 149.89187 34187 ft 441 kts 310°
2026-04-22 00:24 -32.80331 149.86677 34543 ft 439 kts 310°
2026-04-22 00:24 -32.78120 149.84181 34894 ft 437 kts 309°
2026-04-22 00:25 -32.75919 149.81697 35229 ft 436 kts 309°
2026-04-22 00:25 -32.73723 149.79218 35542 ft 435 kts 309°
2026-04-22 00:25 -32.71536 149.76752 35884 ft 433 kts 309°
2026-04-22 00:25 -32.69385 149.74329 36164 ft 432 kts 309°
2026-04-22 00:26 -32.67205 149.71876 36325 ft 432 kts 309°
2026-04-22 00:26 -32.62818 149.66928 36353 ft 437 kts 309°
2026-04-22 00:27 -32.58399 149.61960 36345 ft 438 kts 309°
2026-04-22 00:27 -32.54277 149.56749 36351 ft 430 kts 302°
2026-04-22 00:28 -32.50491 149.51254 36353 ft 429 kts 302°
2026-04-22 00:28 -32.46736 149.45815 36355 ft 429 kts 302°
2026-04-22 00:29 -32.42958 149.40337 36353 ft 430 kts 302°
2026-04-22 00:29 -32.39169 149.34866 36353 ft 430 kts 302°
2026-04-22 00:30 -32.35375 149.29403 36354 ft 430 kts 302°
2026-04-22 00:30 -32.31604 149.23982 36355 ft 430 kts 302°
2026-04-22 00:31 -32.27810 149.18526 36355 ft 430 kts 302°
2026-04-22 00:31 -32.24013 149.13076 36353 ft 430 kts 302°
2026-04-22 00:32 -32.20214 149.07626 36353 ft 429 kts 302°
2026-04-22 00:32 -32.16442 149.02226 36334 ft 429 kts 302°
2026-04-22 00:33 -32.12642 148.96805 36345 ft 428 kts 302°
2026-04-22 00:33 -32.08853 148.91402 36349 ft 427 kts 302°
2026-04-22 00:34 -32.04616 148.86413 36352 ft 440 kts 317°
2026-04-22 00:34 -31.99481 148.82418 36353 ft 442 kts 319°
2026-04-22 00:35 -31.94362 148.78488 36342 ft 442 kts 319°
2026-04-22 00:35 -31.89209 148.74527 36325 ft 442 kts 319°
2026-04-22 00:36 -31.84066 148.70578 36346 ft 441 kts 319°
2026-04-22 00:36 -31.78938 148.66639 36347 ft 440 kts 319°
2026-04-22 00:37 -31.73843 148.62734 36343 ft 440 kts 319°
2026-04-22 00:37 -31.68718 148.58812 36340 ft 439 kts 319°
2026-04-22 00:38 -31.63604 148.54894 36327 ft 439 kts 319°
2026-04-22 00:38 -31.58520 148.51006 36330 ft 439 kts 319°
2026-04-22 00:39 -31.53400 148.47102 36303 ft 439 kts 320°
2026-04-22 00:39 -31.48282 148.43213 36319 ft 438 kts 320°
2026-04-22 00:40 -31.43174 148.39339 36325 ft 437 kts 320°
2026-04-22 00:40 -31.38079 148.35463 36325 ft 436 kts 320°
2026-04-22 00:41 -31.33020 148.31619 36323 ft 436 kts 320°
2026-04-22 00:41 -31.27932 148.27765 36321 ft 436 kts 320°
2026-04-22 00:42 -31.22840 148.23917 36305 ft 436 kts 320°
2026-04-22 00:42 -31.17754 148.20082 36290 ft 436 kts 320°
2026-04-22 00:43 -31.12693 148.16268 36308 ft 435 kts 320°
2026-04-22 00:43 -31.07610 148.12444 36315 ft 434 kts 320°
2026-04-22 00:44 -31.02535 148.08628 36316 ft 434 kts 320°
2026-04-22 00:44 -30.97463 148.04814 36316 ft 434 kts 320°
2026-04-22 00:45 -30.92428 148.01030 36301 ft 434 kts 320°
2026-04-22 00:45 -30.87359 147.97221 36298 ft 434 kts 320°
2026-04-22 00:46 -30.82286 147.93416 36300 ft 434 kts 320°
2026-04-22 00:46 -30.77206 147.89626 36295 ft 434 kts 320°
2026-04-22 00:47 -30.72126 147.85845 36303 ft 433 kts 320°
2026-04-22 00:47 -30.67092 147.82090 36304 ft 433 kts 320°
2026-04-22 00:48 -30.62023 147.78315 36293 ft 433 kts 320°
2026-04-22 00:48 -30.56959 147.74544 36293 ft 433 kts 320°
2026-04-22 00:49 -30.51887 147.70780 36299 ft 433 kts 320°
2026-04-22 00:49 -30.46820 147.67021 36301 ft 432 kts 320°
2026-04-22 00:50 -30.41785 147.63290 36288 ft 432 kts 321°
2026-04-22 00:50 -30.36723 147.59540 36295 ft 432 kts 321°
2026-04-22 00:51 -30.31663 147.55800 36278 ft 432 kts 321°
2026-04-22 00:51 -30.26403 147.52379 36284 ft 437 kts 327°
2026-04-22 00:52 -30.20926 147.49320 36288 ft 437 kts 327°
2026-04-22 00:52 -30.15493 147.46272 36292 ft 437 kts 327°
2026-04-22 00:53 -30.10019 147.43216 36286 ft 437 kts 327°
2026-04-22 00:53 -30.04533 147.40168 36267 ft 437 kts 327°
2026-04-22 00:54 -29.99052 147.37124 36261 ft 437 kts 327°
2026-04-22 00:54 -29.93610 147.34103 36270 ft 437 kts 327°
2026-04-22 00:55 -29.88131 147.31064 36285 ft 437 kts 327°
2026-04-22 00:55 -29.79912 147.26510 36285 ft 437 kts 327°
2026-04-22 00:56 -29.74433 147.23477 36267 ft 437 kts 327°
2026-04-22 00:56 -29.68993 147.20465 36270 ft 437 kts 327°
2026-04-22 00:57 -29.63504 147.17435 36269 ft 438 kts 327°
2026-04-22 00:57 -29.58015 147.14407 36273 ft 438 kts 327°
2026-04-22 00:58 -29.52519 147.11384 36273 ft 438 kts 328°
2026-04-22 00:58 -29.47060 147.08388 36254 ft 438 kts 327°
2026-04-22 00:59 -29.41565 147.05371 36261 ft 438 kts 327°
2026-04-22 00:59 -29.36070 147.02348 36267 ft 438 kts 327°
2026-04-22 01:00 -29.30568 146.99339 36270 ft 438 kts 327°
2026-04-22 01:00 -29.25102 146.96347 36273 ft 438 kts 327°
2026-04-22 01:01 -29.19604 146.93337 36276 ft 438 kts 327°
2026-04-22 01:01 -29.14100 146.90329 36264 ft 438 kts 327°
2026-04-22 01:02 -29.08595 146.87328 36269 ft 438 kts 327°
2026-04-22 01:02 -29.03087 146.84336 36272 ft 438 kts 327°
2026-04-22 01:03 -28.97620 146.81368 36270 ft 438 kts 327°
2026-04-22 01:03 -28.92119 146.78376 36272 ft 438 kts 327°
2026-04-22 01:04 -28.86617 146.75396 36277 ft 438 kts 327°
2026-04-22 01:04 -28.81121 146.72413 36278 ft 437 kts 327°
2026-04-22 01:05 -28.75680 146.69416 36275 ft 434 kts 323°
2026-04-22 01:05 -28.70814 146.65535 36272 ft 425 kts 315°
2026-04-22 01:06 -28.66071 146.61495 36271 ft 426 kts 316°
2026-04-22 01:06 -28.61325 146.57460 36271 ft 426 kts 316°
2026-04-22 01:07 -28.56616 146.53449 36257 ft 426 kts 315°
2026-04-22 01:07 -28.51870 146.49426 36264 ft 425 kts 315°
2026-04-22 01:08 -28.47119 146.45409 36271 ft 425 kts 315°
2026-04-22 01:08 -28.42373 146.41396 36267 ft 425 kts 315°
2026-04-22 01:09 -28.37632 146.37377 36268 ft 425 kts 315°
2026-04-22 01:09 -28.32920 146.33390 36268 ft 425 kts 315°
2026-04-22 01:10 -28.28171 146.29386 36257 ft 425 kts 315°
2026-04-22 01:10 -28.23427 146.25390 36256 ft 424 kts 315°
2026-04-22 01:11 -28.18690 146.21398 36268 ft 424 kts 315°
2026-04-22 01:11 -28.13985 146.17445 36265 ft 424 kts 315°
2026-04-22 01:12 -28.09251 146.13472 36261 ft 423 kts 315°
2026-04-22 01:12 -28.04521 146.09495 36267 ft 423 kts 315°
2026-04-22 01:13 -27.99787 146.05526 36261 ft 423 kts 315°
2026-04-22 01:13 -27.95085 146.01594 36229 ft 423 kts 315°
2026-04-22 01:14 -27.90354 145.97638 36241 ft 423 kts 315°
2026-04-22 01:14 -27.85629 145.93684 36251 ft 423 kts 315°
2026-04-22 01:15 -27.80902 145.89735 36251 ft 422 kts 315°
2026-04-22 01:15 -27.76178 145.85790 36254 ft 422 kts 315°
2026-04-22 01:16 -27.71479 145.81880 36254 ft 422 kts 315°
2026-04-22 01:16 -27.66753 145.77946 36241 ft 422 kts 315°
2026-04-22 01:17 -27.62025 145.74026 36236 ft 421 kts 315°
2026-04-22 01:17 -27.57301 145.70112 36249 ft 421 kts 315°
2026-04-22 01:18 -27.52630 145.66231 36254 ft 420 kts 315°
2026-04-22 01:18 -27.47917 145.62321 36253 ft 420 kts 315°
2026-04-22 01:19 -27.43206 145.58424 36247 ft 420 kts 315°
2026-04-22 01:19 -27.38495 145.54528 36244 ft 420 kts 315°
2026-04-22 01:20 -27.33783 145.50643 36236 ft 420 kts 315°
2026-04-22 01:20 -27.29105 145.46792 36216 ft 420 kts 315°
2026-04-22 01:21 -27.24400 145.42912 36225 ft 419 kts 315°
2026-04-22 01:21 -27.19691 145.39038 36231 ft 419 kts 315°
2026-04-22 01:22 -27.14983 145.35169 36232 ft 419 kts 315°
2026-04-22 01:22 -27.10308 145.31326 36232 ft 419 kts 315°
2026-04-22 01:23 -27.05601 145.27461 36233 ft 419 kts 315°
2026-04-22 01:23 -27.00892 145.23602 36217 ft 419 kts 315°
2026-04-22 01:24 -26.96179 145.19741 36202 ft 420 kts 315°
2026-04-22 01:24 -26.91492 145.15912 36201 ft 420 kts 315°
2026-04-22 01:25 -26.86770 145.12057 36213 ft 420 kts 315°
2026-04-22 01:25 -26.82134 145.08109 36214 ft 413 kts 308°
2026-04-22 01:26 -26.78168 145.03536 36222 ft 409 kts 306°
2026-04-22 01:26 -26.74230 144.98941 36202 ft 409 kts 306°
2026-04-22 01:27 -26.70308 144.94385 36211 ft 409 kts 306°
2026-04-22 01:27 -26.66353 144.89798 36214 ft 409 kts 306°
2026-04-22 01:28 -26.62397 144.85217 36193 ft 409 kts 306°
2026-04-22 01:28 -26.58442 144.80645 36205 ft 409 kts 306°
2026-04-22 01:29 -26.54490 144.76072 36210 ft 409 kts 306°
2026-04-22 01:29 -26.50560 144.71538 36210 ft 409 kts 306°
2026-04-22 01:30 -26.46609 144.66981 36212 ft 408 kts 306°
2026-04-22 01:30 -26.42664 144.62427 36212 ft 408 kts 306°
2026-04-22 01:31 -26.38711 144.57877 36214 ft 408 kts 306°
2026-04-22 01:31 -26.34759 144.53327 36216 ft 408 kts 306°
2026-04-22 01:32 -26.30832 144.48815 36200 ft 408 kts 306°
2026-04-22 01:32 -26.26873 144.44285 36212 ft 407 kts 306°
2026-04-22 01:33 -26.22925 144.39766 36197 ft 407 kts 306°
2026-04-22 01:33 -26.18991 144.35249 36209 ft 406 kts 306°
2026-04-22 01:34 -26.15092 144.30769 36200 ft 405 kts 306°
2026-04-22 01:34 -26.11157 144.26276 36203 ft 405 kts 306°
2026-04-22 01:35 -26.07225 144.21789 36199 ft 405 kts 306°
2026-04-22 01:35 -26.03299 144.17299 36206 ft 404 kts 306°
2026-04-22 01:36 -25.99405 144.12844 36206 ft 404 kts 306°
2026-04-22 01:36 -25.95476 144.08374 36197 ft 404 kts 306°
2026-04-22 01:37 -25.91542 144.03914 36196 ft 404 kts 306°
2026-04-22 01:37 -25.87613 143.99455 36184 ft 404 kts 306°
2026-04-22 01:38 -25.83710 143.95024 36192 ft 404 kts 306°
2026-04-22 01:38 -25.79775 143.90564 36191 ft 404 kts 306°
2026-04-22 01:39 -25.75846 143.86111 36192 ft 404 kts 306°
2026-04-22 01:39 -25.71915 143.81659 36193 ft 404 kts 306°
2026-04-22 01:40 -25.67974 143.77212 36196 ft 404 kts 306°
2026-04-22 01:40 -25.64060 143.72797 36182 ft 404 kts 306°
2026-04-22 01:41 -25.60127 143.68351 36189 ft 404 kts 306°
2026-04-22 01:41 -25.56193 143.63907 36192 ft 404 kts 306°
2026-04-22 01:42 -25.52256 143.59472 36193 ft 404 kts 306°
2026-04-22 01:42 -25.48314 143.55040 36194 ft 404 kts 306°
2026-04-22 01:43 -25.44399 143.50647 36187 ft 403 kts 306°
2026-04-22 01:43 -25.40461 143.46225 36182 ft 403 kts 306°
2026-04-22 01:44 -25.36526 143.41813 36185 ft 403 kts 306°
2026-04-22 01:44 -25.32587 143.37406 36186 ft 403 kts 306°
2026-04-22 01:45 -25.28685 143.33030 36183 ft 402 kts 306°
2026-04-22 01:45 -25.24751 143.28633 36182 ft 402 kts 306°
2026-04-22 01:46 -25.20821 143.24236 36168 ft 402 kts 306°
2026-04-22 01:46 -25.16889 143.19847 36174 ft 402 kts 306°
2026-04-22 01:47 -25.12974 143.15497 36156 ft 402 kts 306°
2026-04-22 01:47 -25.09040 143.11118 36161 ft 402 kts 306°
2026-04-22 01:48 -25.05110 143.06735 36168 ft 402 kts 306°
2026-04-22 01:48 -25.01172 143.02361 36175 ft 402 kts 306°
2026-04-22 01:49 -24.97232 142.97987 36168 ft 402 kts 306°
2026-04-22 01:49 -24.93324 142.93647 36172 ft 402 kts 306°
2026-04-22 01:50 -24.89388 142.89279 36176 ft 402 kts 306°
2026-04-22 01:50 -24.85451 142.84914 36174 ft 402 kts 306°
2026-04-22 01:51 -24.81510 142.80556 36174 ft 401 kts 306°
2026-04-22 01:51 -24.77596 142.76234 36143 ft 401 kts 306°
2026-04-22 01:52 -24.73659 142.71881 36157 ft 401 kts 306°
2026-04-22 01:52 -24.69717 142.67532 36164 ft 401 kts 306°
2026-04-22 01:53 -24.65773 142.63192 36166 ft 401 kts 306°
2026-04-22 01:53 -24.61863 142.58880 36168 ft 401 kts 306°
2026-04-22 01:54 -24.57922 142.54543 36170 ft 401 kts 306°
2026-04-22 01:54 -24.53980 142.50210 36164 ft 401 kts 307°
2026-04-22 01:55 -24.50041 142.45881 36172 ft 401 kts 307°
2026-04-22 01:55 -24.46097 142.41555 36168 ft 401 kts 307°
2026-04-22 01:56 -24.42178 142.37256 36162 ft 401 kts 307°
2026-04-22 01:56 -24.38227 142.32939 36150 ft 401 kts 307°
2026-04-22 01:57 -24.34272 142.28619 36154 ft 401 kts 307°
2026-04-22 01:57 -24.30327 142.24295 36153 ft 401 kts 307°
2026-04-22 01:58 -24.26397 142.19997 36158 ft 402 kts 307°
2026-04-22 01:58 -24.22438 142.15677 36161 ft 402 kts 307°
2026-04-22 01:59 -24.18472 142.11360 36166 ft 402 kts 307°
2026-04-22 01:59 -24.14505 142.07046 36168 ft 402 kts 307°
2026-04-22 02:00 -24.10547 142.02740 36141 ft 400 kts 307°
2026-04-22 02:00 -24.06624 141.98478 36143 ft 400 kts 307°
2026-04-22 02:01 -24.02669 141.94175 36129 ft 401 kts 307°
2026-04-22 02:01 -23.98701 141.89873 36140 ft 402 kts 307°
2026-04-22 02:02 -23.94719 141.85569 36153 ft 403 kts 307°
2026-04-22 02:02 -23.90766 141.81286 36160 ft 403 kts 307°
2026-04-22 02:03 -23.86792 141.76971 36155 ft 403 kts 307°
2026-04-22 02:03 -23.82811 141.72660 36161 ft 403 kts 307°
2026-04-22 02:04 -23.76851 141.66238 36167 ft 403 kts 308°
2026-04-22 02:05 -23.72857 141.61941 36169 ft 403 kts 307°
2026-04-22 02:05 -23.68870 141.57646 36168 ft 403 kts 307°
2026-04-22 02:06 -23.64888 141.53344 36154 ft 403 kts 308°
2026-04-22 02:06 -23.60922 141.49075 36159 ft 403 kts 308°
2026-04-22 02:07 -23.56919 141.44783 36160 ft 404 kts 308°
2026-04-22 02:07 -23.52921 141.40487 36161 ft 404 kts 308°
2026-04-22 02:08 -23.48923 141.36193 36166 ft 404 kts 308°
2026-04-22 02:08 -23.44943 141.31930 36160 ft 404 kts 308°
2026-04-22 02:09 -23.40936 141.27648 36164 ft 404 kts 308°
2026-04-22 02:09 -23.36933 141.23368 36161 ft 403 kts 308°
2026-04-22 02:10 -23.32934 141.19085 36158 ft 403 kts 308°
2026-04-22 02:10 -23.28928 141.14806 36148 ft 403 kts 308°
2026-04-22 02:11 -23.24953 141.10564 36147 ft 403 kts 308°
2026-04-22 02:11 -23.20946 141.06294 36150 ft 403 kts 308°
2026-04-22 02:12 -23.16938 141.02035 36153 ft 403 kts 308°
2026-04-22 02:12 -23.13609 140.98495 36158 ft 403 kts 308°
2026-04-22 02:13 -23.09604 140.94238 36154 ft 403 kts 308°
2026-04-22 02:13 -23.04834 140.89406 36157 ft 405 kts 310°
2026-04-22 02:14 -23.00615 140.85342 36146 ft 405 kts 311°
2026-04-22 02:14 -22.97085 140.81937 36148 ft 405 kts 310°
2026-04-22 02:15 -22.92927 140.77885 36140 ft 405 kts 310°
2026-04-22 02:15 -22.88750 140.73792 36144 ft 405 kts 310°
2026-04-22 02:16 -22.84560 140.69702 36149 ft 405 kts 310°
2026-04-22 02:16 -22.80367 140.65613 36145 ft 405 kts 310°
2026-04-22 02:17 -22.76200 140.61560 36136 ft 405 kts 310°
2026-04-22 02:17 -22.72006 140.57481 36138 ft 405 kts 311°
2026-04-22 02:18 -22.67809 140.53406 36143 ft 405 kts 310°
2026-04-22 02:18 -22.63618 140.49325 36144 ft 405 kts 310°
2026-04-22 02:19 -22.59420 140.45251 36128 ft 405 kts 311°
2026-04-22 02:19 -22.55254 140.41209 36116 ft 406 kts 311°
2026-04-22 02:20 -22.51042 140.37127 36122 ft 406 kts 311°
2026-04-22 02:20 -22.46823 140.33045 36128 ft 407 kts 311°
2026-04-22 02:21 -22.42609 140.28968 36132 ft 407 kts 311°
2026-04-22 02:21 -22.38385 140.24885 36135 ft 407 kts 311°
2026-04-22 02:22 -22.34192 140.20835 36138 ft 407 kts 311°
2026-04-22 02:22 -22.29962 140.16762 36137 ft 407 kts 311°
2026-04-22 02:23 -22.25735 140.12692 36128 ft 407 kts 311°
2026-04-22 02:23 -22.21511 140.08613 36114 ft 408 kts 311°
2026-04-22 02:24 -22.17278 140.04532 36116 ft 409 kts 311°
2026-04-22 02:24 -22.13051 140.00477 36120 ft 409 kts 311°
2026-04-22 02:25 -22.08801 139.96397 36115 ft 409 kts 311°
2026-04-22 02:25 -22.04546 139.92315 36121 ft 409 kts 311°
2026-04-22 02:26 -22.00315 139.88263 36128 ft 409 kts 311°
2026-04-22 02:26 -21.96062 139.84188 36130 ft 409 kts 311°
2026-04-22 02:27 -21.91812 139.80106 36128 ft 409 kts 311°
2026-04-22 02:27 -21.87560 139.76027 36126 ft 409 kts 311°
2026-04-22 02:28 -21.83310 139.71947 36124 ft 409 kts 311°
2026-04-22 02:28 -21.79075 139.67920 36127 ft 409 kts 311°
2026-04-22 02:29 -21.74818 139.63867 36128 ft 409 kts 311°
2026-04-22 02:29 -21.70565 139.59809 36128 ft 409 kts 311°
2026-04-22 02:30 -21.66310 139.55755 36130 ft 409 kts 311°
2026-04-22 02:30 -21.62051 139.51706 36125 ft 409 kts 311°
2026-04-22 02:31 -21.57825 139.47689 36126 ft 408 kts 311°
2026-04-22 02:31 -21.53577 139.43647 36106 ft 408 kts 311°
2026-04-22 02:32 -21.49328 139.39604 36102 ft 408 kts 311°
2026-04-22 02:32 -21.45067 139.35561 36104 ft 409 kts 312°
2026-04-22 02:33 -21.40832 139.31554 36110 ft 409 kts 312°
2026-04-22 02:33 -21.36557 139.27507 36114 ft 409 kts 312°
2026-04-22 02:34 -21.32285 139.23459 36117 ft 410 kts 312°
2026-04-22 02:34 -21.28012 139.19412 36120 ft 410 kts 312°
2026-04-22 02:35 -21.23761 139.15396 36121 ft 410 kts 312°
2026-04-22 02:35 -21.19483 139.11361 36103 ft 410 kts 312°
2026-04-22 02:36 -21.15199 139.07320 36097 ft 410 kts 312°
2026-04-22 02:36 -21.10913 139.03279 36100 ft 411 kts 312°
2026-04-22 02:37 -21.06622 138.99239 36096 ft 411 kts 312°
2026-04-22 02:37 -21.02360 138.95223 36101 ft 411 kts 312°
2026-04-22 02:38 -20.98065 138.91181 36107 ft 411 kts 312°
2026-04-22 02:38 -20.93767 138.87143 36109 ft 411 kts 312°
2026-04-22 02:39 -20.89464 138.83108 36100 ft 411 kts 312°
2026-04-22 02:39 -20.85190 138.79099 36085 ft 411 kts 312°
2026-04-22 02:40 -20.80885 138.75062 36087 ft 412 kts 312°
2026-04-22 02:40 -20.76577 138.71022 36088 ft 412 kts 312°
2026-04-22 02:41 -20.72265 138.66985 36089 ft 412 kts 312°
2026-04-22 02:41 -20.67946 138.62950 36093 ft 412 kts 312°
2026-04-22 02:42 -20.63657 138.58941 36101 ft 413 kts 312°
2026-04-22 02:42 -20.59336 138.54905 36097 ft 413 kts 312°
2026-04-22 02:43 -20.55012 138.50874 36097 ft 413 kts 313°
2026-04-22 02:43 -20.50683 138.46846 36085 ft 413 kts 313°
2026-04-22 02:44 -20.46386 138.42837 36086 ft 413 kts 313°
2026-04-22 02:44 -20.42060 138.38807 36088 ft 413 kts 313°
2026-04-22 02:45 -20.37732 138.34780 36095 ft 413 kts 313°
2026-04-22 02:45 -20.33400 138.30752 36093 ft 413 kts 313°
2026-04-22 02:46 -20.29066 138.26729 36094 ft 413 kts 313°
2026-04-22 02:46 -20.24768 138.22741 36095 ft 413 kts 313°
2026-04-22 02:47 -20.20431 138.18712 36091 ft 413 kts 313°
2026-04-22 02:47 -20.16094 138.14691 36081 ft 414 kts 313°
2026-04-22 02:48 -20.11747 138.10673 36081 ft 414 kts 313°
2026-04-22 02:48 -20.07423 138.06676 36083 ft 415 kts 313°
2026-04-22 02:49 -20.03071 138.02652 36101 ft 415 kts 313°
2026-04-22 02:49 -19.98709 137.98630 36083 ft 415 kts 313°
2026-04-22 02:50 -19.94352 137.94605 36082 ft 415 kts 313°
2026-04-22 02:50 -19.90020 137.90610 36090 ft 415 kts 313°
2026-04-22 02:51 -19.85658 137.86586 36091 ft 415 kts 313°
2026-04-22 02:51 -19.81290 137.82566 36070 ft 416 kts 313°
2026-04-22 02:52 -19.76918 137.78548 36078 ft 416 kts 313°
2026-04-22 02:52 -19.72544 137.74524 36077 ft 416 kts 313°
2026-04-22 02:53 -19.68199 137.70528 36084 ft 416 kts 313°
2026-04-22 02:53 -19.63827 137.66504 36083 ft 416 kts 313°
2026-04-22 02:54 -19.59453 137.62493 36087 ft 416 kts 313°
2026-04-22 02:54 -19.55065 137.58473 36080 ft 416 kts 313°
2026-04-22 02:55 -19.50704 137.54485 36079 ft 417 kts 313°
2026-04-22 02:55 -19.46319 137.50474 36069 ft 417 kts 313°
2026-04-22 02:56 -19.41931 137.46455 36074 ft 417 kts 313°
2026-04-22 02:56 -19.37545 137.42443 36083 ft 417 kts 313°
2026-04-22 02:57 -19.33148 137.38418 36067 ft 417 kts 313°
2026-04-22 02:57 -19.28778 137.34426 36072 ft 418 kts 313°
2026-04-22 02:58 -19.24534 137.30564 36073 ft 418 kts 313°
2026-04-22 02:58 -19.20127 137.26553 36071 ft 418 kts 313°
2026-04-22 02:59 -19.15719 137.22539 36063 ft 418 kts 313°
2026-04-22 02:59 -19.11344 137.18558 36064 ft 418 kts 313°
2026-04-22 03:00 -19.06930 137.14547 36063 ft 418 kts 313°
2026-04-22 03:00 -19.02519 137.10538 36061 ft 418 kts 313°
2026-04-22 03:01 -18.98106 137.06535 36063 ft 418 kts 314°
2026-04-22 03:01 -18.93696 137.02531 36054 ft 418 kts 313°
2026-04-22 03:02 -18.89312 136.98552 36054 ft 418 kts 313°
2026-04-22 03:02 -18.84902 136.94549 36046 ft 418 kts 314°
2026-04-22 03:03 -18.80490 136.90554 36037 ft 418 kts 314°
2026-04-22 03:03 -18.76067 136.86562 36034 ft 419 kts 314°
2026-04-22 03:04 -18.71673 136.82590 36036 ft 419 kts 314°
2026-04-22 03:04 -18.67251 136.78591 36035 ft 419 kts 314°
2026-04-22 03:05 -18.62825 136.74591 36033 ft 419 kts 314°
2026-04-22 03:05 -18.58394 136.70600 36031 ft 419 kts 314°
2026-04-22 03:06 -18.53996 136.66630 36032 ft 420 kts 314°
2026-04-22 03:06 -18.51771 136.64622 36222 ft 421 kts 314°
2026-04-22 03:06 -18.49543 136.62616 36527 ft 421 kts 314°
2026-04-22 03:06 -18.47315 136.60614 36851 ft 420 kts 314°
2026-04-22 03:07 -18.45101 136.58621 37181 ft 418 kts 314°
2026-04-22 03:07 -18.42886 136.56634 37506 ft 417 kts 314°
2026-04-22 03:07 -18.40682 136.54659 37812 ft 416 kts 314°
2026-04-22 03:07 -18.38483 136.52684 38007 ft 416 kts 313°
2026-04-22 03:08 -18.36283 136.50707 38027 ft 415 kts 313°
2026-04-22 03:08 -18.31903 136.46766 38027 ft 414 kts 313°
2026-04-22 03:09 -18.27548 136.42857 38024 ft 414 kts 313°
2026-04-22 03:09 -18.23162 136.38924 38024 ft 414 kts 314°
2026-04-22 03:10 -18.18777 136.34993 38017 ft 414 kts 313°
2026-04-22 03:10 -18.14396 136.31057 38011 ft 415 kts 314°
2026-04-22 03:11 -18.10030 136.27144 38019 ft 415 kts 314°
2026-04-22 03:11 -18.05627 136.23203 38023 ft 416 kts 314°
2026-04-22 03:12 -18.01210 136.19268 38032 ft 416 kts 314°
2026-04-22 03:12 -17.94585 136.13364 38027 ft 417 kts 314°
2026-04-22 03:13 -17.90174 136.09418 38027 ft 417 kts 314°
2026-04-22 03:13 -17.85788 136.05498 38030 ft 417 kts 314°
2026-04-22 03:14 -17.81368 136.01557 38019 ft 417 kts 314°
2026-04-22 03:14 -17.76945 135.97609 38021 ft 418 kts 314°
2026-04-22 03:15 -17.72507 135.93672 38017 ft 418 kts 314°
2026-04-22 03:15 -17.68069 135.89728 38021 ft 418 kts 314°
2026-04-22 03:16 -17.63663 135.85806 38027 ft 418 kts 314°
2026-04-22 03:16 -17.59227 135.81858 38026 ft 418 kts 314°
2026-04-22 03:17 -17.54787 135.77920 38026 ft 418 kts 314°
2026-04-22 03:17 -17.50342 135.73985 38027 ft 418 kts 314°
2026-04-22 03:18 -17.45930 135.70070 38014 ft 418 kts 315°
2026-04-22 03:18 -17.41492 135.66133 38018 ft 419 kts 315°
2026-04-22 03:19 -17.37035 135.62190 38025 ft 419 kts 315°
2026-04-22 03:19 -17.32579 135.58249 38019 ft 419 kts 315°
2026-04-22 03:20 -17.28119 135.54311 38019 ft 419 kts 315°
2026-04-22 03:20 -17.23662 135.50374 38027 ft 419 kts 315°
2026-04-22 03:21 -17.19237 135.46463 38024 ft 419 kts 315°
2026-04-22 03:21 -17.14778 135.42527 38006 ft 419 kts 315°
2026-04-22 03:22 -17.10323 135.38589 38009 ft 420 kts 315°
2026-04-22 03:22 -17.05861 135.34652 38008 ft 420 kts 315°
2026-04-22 03:23 -17.01391 135.30722 38010 ft 420 kts 315°
2026-04-22 03:23 -16.96946 135.26815 38025 ft 420 kts 315°
2026-04-22 03:24 -16.92474 135.22879 38012 ft 420 kts 315°
2026-04-22 03:24 -16.88003 135.18944 38014 ft 420 kts 315°
2026-04-22 03:25 -16.83526 135.15011 38030 ft 421 kts 315°
2026-04-22 03:25 -16.79077 135.11102 38007 ft 421 kts 315°
2026-04-22 03:26 -16.74593 135.07162 38011 ft 422 kts 315°
2026-04-22 03:26 -16.70101 135.03226 38027 ft 422 kts 316°
2026-04-22 03:27 -16.65605 134.99298 38027 ft 422 kts 316°
2026-04-22 03:27 -16.61110 134.95366 38014 ft 421 kts 315°
2026-04-22 03:28 -16.56650 134.91464 38020 ft 421 kts 315°
2026-04-22 03:28 -16.52158 134.87532 38003 ft 422 kts 316°
2026-04-22 03:29 -16.47662 134.83597 38010 ft 422 kts 316°
2026-04-22 03:29 -16.43158 134.79662 38005 ft 423 kts 316°
2026-04-22 03:30 -16.38650 134.75726 38016 ft 423 kts 316°
2026-04-22 03:30 -16.34171 134.71819 37998 ft 423 kts 316°
2026-04-22 03:31 -16.29653 134.67888 38001 ft 424 kts 316°
2026-04-22 03:31 -16.25133 134.63945 38003 ft 424 kts 316°
2026-04-22 03:32 -16.20608 134.59997 38009 ft 424 kts 316°
2026-04-22 03:32 -16.16081 134.56055 38006 ft 424 kts 316°
2026-04-22 03:33 -16.11580 134.52151 37998 ft 424 kts 316°
2026-04-22 03:33 -16.07045 134.48211 38000 ft 425 kts 316°
2026-04-22 03:34 -16.02641 134.44144 37999 ft 421 kts 308°
2026-04-22 03:34 -15.99115 134.39323 38001 ft 419 kts 303°
2026-04-22 03:35 -15.95633 134.34471 37992 ft 419 kts 304°
2026-04-22 03:35 -15.92162 134.29658 37990 ft 419 kts 304°
2026-04-22 03:36 -15.88660 134.24811 37988 ft 420 kts 304°
2026-04-22 03:36 -15.85156 134.19953 37991 ft 420 kts 304°
2026-04-22 03:37 -15.81661 134.15091 37992 ft 420 kts 304°
2026-04-22 03:37 -15.78162 134.10234 37993 ft 420 kts 304°
2026-04-22 03:38 -15.74682 134.05404 37993 ft 420 kts 304°
2026-04-22 03:38 -15.71183 134.00544 37993 ft 420 kts 304°
2026-04-22 03:39 -15.67678 133.95689 37987 ft 420 kts 304°
2026-04-22 03:39 -15.64171 133.90839 37985 ft 420 kts 304°
2026-04-22 03:40 -15.60663 133.85982 37987 ft 420 kts 304°
2026-04-22 03:40 -15.57176 133.81164 37978 ft 420 kts 304°
2026-04-22 03:41 -15.53656 133.76319 37975 ft 421 kts 304°
2026-04-22 03:41 -15.50136 133.71467 37974 ft 421 kts 304°
2026-04-22 03:42 -15.46616 133.66608 37980 ft 421 kts 304°
2026-04-22 03:42 -15.43090 133.61749 37982 ft 422 kts 304°
2026-04-22 03:43 -15.39568 133.56886 37980 ft 422 kts 304°
2026-04-22 03:43 -15.36069 133.52058 37972 ft 422 kts 304°
2026-04-22 03:44 -15.32534 133.47195 37974 ft 423 kts 304°
2026-04-22 03:44 -15.28998 133.42334 37977 ft 422 kts 304°
2026-04-22 03:45 -15.25457 133.37472 37977 ft 423 kts 304°
2026-04-22 03:45 -15.21918 133.32612 37977 ft 423 kts 304°
2026-04-22 03:46 -15.18401 133.27784 37971 ft 423 kts 304°
2026-04-22 03:46 -15.14855 133.22933 37975 ft 423 kts 304°
2026-04-22 03:47 -15.11314 133.18078 37967 ft 423 kts 304°
2026-04-22 03:47 -15.07767 133.13223 37972 ft 423 kts 304°
2026-04-22 03:48 -15.04247 133.08396 37974 ft 423 kts 304°
2026-04-22 03:48 -15.00707 133.03540 37973 ft 423 kts 304°
2026-04-22 03:49 -14.97155 132.98690 37971 ft 423 kts 304°
2026-04-22 03:49 -14.93597 132.93842 37969 ft 423 kts 304°
2026-04-22 03:50 -14.90051 132.88990 37975 ft 423 kts 304°
2026-04-22 03:50 -14.86529 132.84166 37973 ft 423 kts 304°
2026-04-22 03:51 -14.82969 132.79319 37973 ft 423 kts 304°
2026-04-22 03:51 -14.79405 132.74474 37964 ft 423 kts 304°
2026-04-22 03:52 -14.75845 132.69625 37960 ft 424 kts 304°
2026-04-22 03:52 -14.72285 132.64777 37970 ft 424 kts 304°
2026-04-22 03:53 -14.68741 132.59963 37966 ft 424 kts 304°
2026-04-22 03:53 -14.65175 132.55113 37968 ft 424 kts 304°
2026-04-22 03:54 -14.61611 132.50260 37962 ft 424 kts 304°
2026-04-22 03:54 -14.58040 132.45411 37961 ft 424 kts 305°
2026-04-22 03:55 -14.54398 132.40663 37954 ft 426 kts 313°
2026-04-22 03:55 -14.49487 132.37205 37958 ft 434 kts 334°
2026-04-22 03:56 -14.46595 132.36266 37957 ft 439 kts 346°
2026-04-22 03:56 -14.43569 132.35751 37954 ft 441 kts 347°
2026-04-22 03:56 -14.37499 132.34784 37955 ft 442 kts 348°
2026-04-22 03:57 -14.31421 132.33816 37958 ft 442 kts 348°
2026-04-22 03:57 -14.25340 132.32842 37958 ft 442 kts 347°
2026-04-22 03:58 -14.19636 132.30860 37954 ft 433 kts 328°
2026-04-22 03:58 -14.14632 132.27457 37945 ft 431 kts 322°
2026-04-22 03:59 -14.09684 132.23962 37942 ft 431 kts 323°
2026-04-22 03:59 -14.04729 132.20486 37944 ft 432 kts 323°
2026-04-22 04:00 -13.99796 132.17016 37944 ft 432 kts 323°
2026-04-22 04:00 -13.94837 132.13524 37950 ft 432 kts 323°
2026-04-22 04:01 -13.89874 132.10033 37672 ft 432 kts 323°
2026-04-22 04:01 -13.87392 132.08288 37405 ft 432 kts 323°
2026-04-22 04:01 -13.84907 132.06541 37151 ft 433 kts 323°
2026-04-22 04:02 -13.82417 132.04792 36897 ft 434 kts 323°
2026-04-22 04:02 -13.79926 132.03043 36649 ft 434 kts 323°
2026-04-22 04:02 -13.77461 132.01311 36406 ft 435 kts 323°
2026-04-22 04:02 -13.74964 131.99553 36162 ft 435 kts 323°
2026-04-22 04:03 -13.72466 131.97799 35919 ft 434 kts 323°
2026-04-22 04:03 -13.69978 131.96052 35677 ft 433 kts 323°
2026-04-22 04:03 -13.67494 131.94311 35440 ft 431 kts 323°
2026-04-22 04:03 -13.65021 131.92580 35205 ft 430 kts 323°
2026-04-22 04:04 -13.62552 131.90854 34974 ft 428 kts 323°
2026-04-22 04:04 -13.60092 131.89131 34752 ft 427 kts 323°
2026-04-22 04:04 -13.57653 131.87424 34419 ft 422 kts 323°
2026-04-22 04:04 -13.55227 131.85727 33955 ft 421 kts 323°
2026-04-22 04:05 -13.52812 131.84035 33455 ft 419 kts 323°
2026-04-22 04:05 -13.50411 131.82353 32993 ft 416 kts 323°
2026-04-22 04:05 -13.48058 131.80705 32528 ft 414 kts 323°
2026-04-22 04:05 -13.45683 131.79043 32084 ft 412 kts 323°
2026-04-22 04:06 -13.43324 131.77389 31628 ft 410 kts 323°
2026-04-22 04:06 -13.40973 131.75741 31193 ft 408 kts 323°
2026-04-22 04:06 -13.38633 131.74104 30758 ft 407 kts 324°
2026-04-22 04:06 -13.36297 131.72471 30331 ft 405 kts 323°
2026-04-22 04:07 -13.33973 131.70846 29899 ft 404 kts 324°
2026-04-22 04:07 -13.31679 131.69246 29448 ft 402 kts 323°
2026-04-22 04:07 -13.29600 131.67888 29101 ft 397 kts 333°
2026-04-22 04:07 -13.27148 131.66674 28712 ft 394 kts 328°
2026-04-22 04:08 -13.25619 131.65718 28459 ft 391 kts 324°
2026-04-22 04:08 -13.22917 131.63687 27983 ft 388 kts 320°
2026-04-22 04:08 -13.20816 131.61989 27608 ft 386 kts 320°
2026-04-22 04:08 -13.18697 131.60300 27211 ft 385 kts 321°
2026-04-22 04:09 -13.16553 131.58669 26818 ft 383 kts 322°
2026-04-22 04:09 -13.14378 131.57094 26420 ft 382 kts 324°
2026-04-22 04:09 -13.12927 131.56076 26141 ft 381 kts 324°
2026-04-22 04:09 -13.10727 131.54559 25747 ft 380 kts 324°
2026-04-22 04:10 -13.08532 131.53056 25328 ft 379 kts 325°
2026-04-22 04:10 -13.06339 131.51554 24913 ft 379 kts 325°
2026-04-22 04:10 -13.04155 131.50048 24480 ft 378 kts 324°
2026-04-22 04:10 -13.01975 131.48535 24056 ft 378 kts 324°
2026-04-22 04:11 -12.99800 131.47019 23622 ft 378 kts 324°
2026-04-22 04:11 -12.97627 131.45500 23135 ft 378 kts 324°
2026-04-22 04:11 -12.95464 131.43991 22694 ft 375 kts 324°
2026-04-22 04:11 -12.93310 131.42490 22255 ft 373 kts 324°
2026-04-22 04:12 -12.91171 131.40999 21822 ft 371 kts 324°
2026-04-22 04:12 -12.89040 131.39515 21391 ft 369 kts 325°
2026-04-22 04:12 -12.86917 131.38038 20961 ft 368 kts 325°
2026-04-22 04:12 -12.84830 131.36587 20538 ft 367 kts 325°
2026-04-22 04:13 -12.82720 131.35120 20102 ft 366 kts 325°
2026-04-22 04:13 -12.80627 131.33664 19677 ft 365 kts 326°
2026-04-22 04:13 -12.78514 131.32191 19242 ft 365 kts 326°
2026-04-22 04:13 -12.76414 131.30728 18815 ft 365 kts 326°
2026-04-22 04:14 -12.74314 131.29266 18382 ft 365 kts 326°
2026-04-22 04:14 -12.72214 131.27809 17911 ft 365 kts 326°
2026-04-22 04:14 -12.70115 131.26354 17466 ft 363 kts 326°
2026-04-22 04:14 -12.68032 131.24910 17040 ft 360 kts 326°
2026-04-22 04:15 -12.65965 131.23473 16611 ft 358 kts 326°
2026-04-22 04:15 -12.63911 131.22044 16182 ft 356 kts 326°
2026-04-22 04:15 -12.62033 131.20463 15756 ft 354 kts 313°
2026-04-22 04:15 -12.60571 131.18450 15337 ft 353 kts 299°
2026-04-22 04:16 -12.59622 131.16147 14913 ft 351 kts 289°
2026-04-22 04:16 -12.58069 131.11445 14173 ft 344 kts 289°
2026-04-22 04:16 -12.57302 131.09124 13699 ft 345 kts 290°
2026-04-22 04:17 -12.56535 131.06811 13280 ft 343 kts 290°
2026-04-22 04:17 -12.56375 131.06330 13175 ft 343 kts 290°
2026-04-22 04:21 -12.56294 131.06090 13124 ft 343 kts 290°
2026-04-22 04:21 -12.55527 131.03785 12713 ft 340 kts 290°
2026-04-22 04:21 -12.54770 131.01510 12361 ft 336 kts 289°
2026-04-22 04:21 -12.54014 130.99242 11938 ft 336 kts 289°
2026-04-22 04:22 -12.53263 130.96987 11527 ft 334 kts 289°
2026-04-22 04:22 -12.52514 130.94740 11126 ft 333 kts 290°
2026-04-22 04:22 -12.51766 130.92499 10736 ft 333 kts 290°
2026-04-22 04:22 -12.51021 130.90265 10360 ft 331 kts 290°
2026-04-22 04:23 -12.50276 130.88034 9950 ft 332 kts 289°
2026-04-22 04:23 -12.49545 130.85844 9715 ft 325 kts 289°
2026-04-22 04:23 -12.48830 130.83702 9506 ft 311 kts 289°
2026-04-22 04:23 -12.48129 130.81619 8898 ft 308 kts 289°
2026-04-22 04:24 -12.47440 130.79575 8480 ft 299 kts 290°
2026-04-22 04:24 -12.46775 130.77600 8118 ft 288 kts 290°
2026-04-22 04:24 -12.46133 130.75692 7773 ft 281 kts 290°
2026-04-22 04:24 -12.45493 130.73795 7423 ft 284 kts 290°
2026-04-22 04:25 -12.44844 130.71881 7069 ft 286 kts 290°
2026-04-22 04:25 -12.44192 130.69952 6724 ft 287 kts 290°
2026-04-22 04:25 -12.43543 130.68049 6492 ft 277 kts 294°
2026-04-22 04:25 -12.42524 130.66480 6316 ft 267 kts 322°
2026-04-22 04:26 -12.40921 130.65612 6187 ft 257 kts 351°
2026-04-22 04:26 -12.39178 130.65614 5818 ft 249 kts 19°
2026-04-22 04:26 -12.37550 130.66155 5424 ft 243 kts 22°
2026-04-22 04:26 -12.36066 130.66877 5031 ft 230 kts 46°
2026-04-22 04:27 -12.35238 130.68188 4679 ft 217 kts 77°
2026-04-22 04:27 -12.35256 130.69673 4336 ft 208 kts 106°
2026-04-22 04:27 -12.35717 130.71046 4009 ft 201 kts 108°
2026-04-22 04:27 -12.36174 130.72373 3685 ft 194 kts 108°
2026-04-22 04:28 -12.36610 130.73646 3380 ft 186 kts 108°
2026-04-22 04:28 -12.37015 130.74846 3082 ft 177 kts 108°
2026-04-22 04:28 -12.37413 130.76030 2655 ft 178 kts 108°
2026-04-22 04:28 -12.37811 130.77214 2274 ft 172 kts 108°
2026-04-22 04:29 -12.38186 130.78327 2054 ft 157 kts 108°
2026-04-22 04:29 -12.38538 130.79368 1785 ft 150 kts 108°
2026-04-22 04:29 -12.38859 130.80317 1601 ft 136 kts 107°
2026-04-22 04:29 -12.39160 130.81209 1395 ft 131 kts 107°
2026-04-22 04:30 -12.39453 130.82083 1206 ft 129 kts 107°
2026-04-22 04:30 -12.39751 130.82949 955 ft 130 kts 107°
2026-04-22 04:30 -12.40044 130.83816 723 ft 129 kts 106°
2026-04-22 04:30 -12.40329 130.84675 506 ft 129 kts 106°
2026-04-22 04:31 -12.40612 130.85546 330 ft 130 kts 107°
2026-04-22 04:31 -12.40901 130.86426 177 ft 130 kts 107°
2026-04-22 04:31 -12.41191 130.87263 101 ft 112 kts 106°
2026-04-22 04:31 -12.41365 130.87859 101 ft 55 kts 107°
2026-04-22 04:32 -12.41479 130.88135 95 ft 34 kts 109°
2026-04-22 04:32 -12.41531 130.88305 96 ft 20 kts 106°
2026-04-22 04:32 -12.41586 130.88410 92 ft 15 kts 139°
2026-04-22 04:32 -12.41679 130.88431 93 ft 13 kts 192°
2026-04-22 04:33 -12.41757 130.88404 95 ft 10 kts 203°
2026-04-22 04:33 -12.41802 130.88366 96 ft 7 kts 234°
2026-04-22 04:33 -12.41817 130.88325 95 ft 8 kts 258°
2026-04-22 04:33 -12.41805 130.88256 95 ft 13 kts 288°
2026-04-22 04:34 -12.41772 130.88155 97 ft 17 kts 289°
2026-04-22 04:34 -12.41732 130.88037 98 ft 18 kts 288°
2026-04-22 04:34 -12.41669 130.87940 99 ft 17 kts 330°
2026-04-22 04:34 -12.41551 130.87942 97 ft 18 kts 18°
2026-04-22 04:35 -12.41425 130.87983 97 ft 20 kts 20°
2026-04-22 04:35 -12.41288 130.88033 98 ft 21 kts 19°
2026-04-22 04:35 -12.41147 130.88083 99 ft 21 kts 19°
2026-04-22 04:35 -12.41063 130.88075 96 ft 13 kts 314°
2026-04-22 04:36 -12.41027 130.87983 97 ft 15 kts 289°
2026-04-22 04:36 -12.40993 130.87882 97 ft 15 kts 287°
2026-04-22 04:36 -12.40967 130.87772 98 ft 16 kts 280°
2026-04-22 04:36 -12.40954 130.87682 95 ft 6 kts 278°
2026-04-22 04:37 -12.40921 130.87667 92 ft 7 kts 19°
2026-04-22 04:37 -12.40880 130.87681 93 ft 2 kts 21°
2026-04-22 04:37 -12.40873 130.87684 91 ft 0 kts 21°